Time,TemperatureF,DewpointF,PressureIn,WindDirection,WindDirectionDegrees,WindSpeedMPH,WindSpeedGustMPH,Humidity,HourlyPrecipIn,Conditions,Clouds,dailyrainin,SoftwareType,DateUTC
2013-02-04 00:01:00,48.7,33.8,30.18,NW,326,0.0,0.0,56,0.00,,---,0.00,VWS V14.01,2013-02-04 05:01:00,
2013-02-04 00:04:00,48.9,32.6,30.18,NW,326,0.0,0.0,53,0.00,,---,0.00,VWS V14.01,2013-02-04 05:04:00,
2013-02-04 00:09:00,49.1,33.7,30.18,NNW,346,0.0,0.0,55,0.00,,---,0.00,VWS V14.01,2013-02-04 05:09:00,
2013-02-04 00:14:00,49.1,33.7,30.18,NNW,346,0.0,0.0,55,0.00,,---,0.00,VWS V14.01,2013-02-04 05:14:00,
2013-02-04 00:19:00,48.7,32.4,30.18,NNW,346,0.0,0.0,53,0.00,,---,0.00,VWS V14.01,2013-02-04 05:19:00,
2013-02-04 00:24:00,48.2,32.3,30.18,NNW,346,0.0,0.0,54,0.00,,---,0.00,VWS V14.01,2013-02-04 05:24:00,
2013-02-04 00:29:00,47.7,33.6,30.18,NNW,346,0.0,0.0,58,0.00,,---,0.00,VWS V14.01,2013-02-04 05:29:00,
2013-02-04 00:34:00,47.5,34.7,30.18,WNW,292,3.1,3.1,61,0.00,,---,0.00,VWS V14.01,2013-02-04 05:34:00,
2013-02-04 00:39:00,48.0,38.0,30.18,NW,312,0.0,0.0,68,0.00,,---,0.00,VWS V14.01,2013-02-04 05:39:00,
2013-02-04 00:44:00,48.0,38.0,30.18,NW,311,0.0,0.0,68,0.00,,---,0.00,VWS V14.01,2013-02-04 05:44:00,
2013-02-04 00:49:00,48.0,38.7,30.18,NW,310,0.0,0.0,70,0.00,,---,0.00,VWS V14.01,2013-02-04 05:49:00,
2013-02-04 00:54:00,48.0,39.4,30.18,NW,310,0.0,0.0,72,0.00,,---,0.00,VWS V14.01,2013-02-04 05:54:00,
2013-02-04 00:59:00,47.8,38.9,30.18,NW,310,0.0,0.0,71,0.00,,---,0.00,VWS V14.01,2013-02-04 05:59:00,
2013-02-04 01:04:00,48.2,39.2,30.18,NW,310,0.0,0.0,71,0.00,,---,0.00,VWS V14.01,2013-02-04 06:04:00,
2013-02-04 01:09:00,48.2,37.4,30.18,NW,310,0.0,0.0,66,0.00,,---,0.00,VWS V14.01,2013-02-04 06:09:00,
2013-02-04 01:14:00,48.0,36.8,30.18,NW,310,0.0,0.0,65,0.00,,---,0.00,VWS V14.01,2013-02-04 06:14:00,
2013-02-04 01:19:00,47.5,35.9,30.18,NW,310,0.0,0.0,64,0.00,,---,0.00,VWS V14.01,2013-02-04 06:19:00,
2013-02-04 01:24:00,47.3,37.3,30.18,NW,310,0.0,0.0,68,0.00,,---,0.00,VWS V14.01,2013-02-04 06:24:00,
2013-02-04 01:29:00,48.7,40.8,30.18,West,281,2.7,2.7,74,0.00,,---,0.00,VWS V14.01,2013-02-04 06:29:00,
2013-02-04 01:34:00,49.1,40.5,30.18,WNW,300,0.0,0.0,72,0.00,,---,0.00,VWS V14.01,2013-02-04 06:34:00,
2013-02-04 01:39:00,49.3,39.2,30.18,WNW,289,0.0,0.0,68,0.00,,---,0.00,VWS V14.01,2013-02-04 06:39:00,
2013-02-04 01:44:00,49.3,38.4,30.18,WNW,291,0.0,0.0,66,0.00,,---,0.00,VWS V14.01,2013-02-04 06:44:00,
2013-02-04 01:49:00,49.5,36.2,30.18,WNW,290,0.0,2.2,60,0.00,,---,0.00,VWS V14.01,2013-02-04 06:49:00,
2013-02-04 01:54:00,49.3,34.7,30.18,WNW,289,0.0,0.0,57,0.00,,---,0.00,VWS V14.01,2013-02-04 06:54:00,
2013-02-04 01:59:00,48.9,33.9,30.18,WNW,289,0.0,0.0,56,0.00,,---,0.00,VWS V14.01,2013-02-04 06:59:00,
2013-02-04 02:05:00,48.7,34.6,30.18,WNW,289,2.7,2.7,58,0.00,,---,0.00,VWS V14.01,2013-02-04 07:05:00,
2013-02-04 02:10:00,48.4,34.3,30.18,WNW,290,0.0,0.0,58,0.00,,---,0.00,VWS V14.01,2013-02-04 07:10:00,
2013-02-04 02:15:00,48.2,35.0,30.18,WNW,291,0.0,0.0,60,0.00,,---,0.00,VWS V14.01,2013-02-04 07:15:00,
2013-02-04 02:20:00,48.0,35.2,30.18,WNW,291,0.0,0.0,61,0.00,,---,0.00,VWS V14.01,2013-02-04 07:20:00,
2013-02-04 02:25:00,47.7,35.3,30.18,WNW,299,0.0,0.0,62,0.00,,---,0.00,VWS V14.01,2013-02-04 07:25:00,
2013-02-04 02:30:00,47.3,34.5,30.18,WNW,299,0.0,0.0,61,0.00,,---,0.00,VWS V14.01,2013-02-04 07:30:00,
2013-02-04 02:35:00,46.9,34.6,30.18,WNW,299,0.0,0.0,62,0.00,,---,0.00,VWS V14.01,2013-02-04 07:35:00,
2013-02-04 02:40:00,46.6,35.8,30.18,WNW,299,0.0,0.0,66,0.00,,---,0.00,VWS V14.01,2013-02-04 07:40:00,
2013-02-04 02:45:00,46.6,37.3,30.18,WNW,299,0.0,0.0,70,0.00,,---,0.00,VWS V14.01,2013-02-04 07:45:00,
2013-02-04 02:50:00,46.6,38.8,30.18,WNW,299,0.0,0.0,74,0.00,,---,0.00,VWS V14.01,2013-02-04 07:50:00,
2013-02-04 02:55:00,46.6,39.1,30.18,WNW,299,0.0,0.0,75,0.00,,---,0.00,VWS V14.01,2013-02-04 07:55:00,
2013-02-04 03:00:00,46.2,39.1,30.18,WNW,299,0.0,0.0,76,0.00,,---,0.00,VWS V14.01,2013-02-04 08:00:00,
2013-02-04 03:05:00,46.2,38.8,30.18,WNW,299,0.0,0.0,75,0.00,,---,0.00,VWS V14.01,2013-02-04 08:05:00,
2013-02-04 03:10:00,46.0,38.6,30.18,WNW,299,0.0,0.0,75,0.00,,---,0.00,VWS V14.01,2013-02-04 08:10:00,
2013-02-04 03:15:00,46.2,39.4,30.18,WNW,299,0.0,0.0,77,0.00,,---,0.00,VWS V14.01,2013-02-04 08:15:00,
2013-02-04 03:20:00,47.5,42.3,30.18,WNW,299,0.0,0.0,82,0.00,,---,0.00,VWS V14.01,2013-02-04 08:20:00,
2013-02-04 03:25:00,47.5,43.2,30.18,WNW,299,0.0,0.0,85,0.00,,---,0.00,VWS V14.01,2013-02-04 08:25:00,
2013-02-04 03:30:00,47.1,42.8,30.18,WNW,299,0.0,0.0,85,0.00,,---,0.00,VWS V14.01,2013-02-04 08:30:00,
2013-02-04 03:35:00,46.9,42.4,30.18,WNW,299,0.0,0.0,84,0.00,,---,0.00,VWS V14.01,2013-02-04 08:35:00,
2013-02-04 03:40:00,46.9,42.4,30.18,NNW,334,0.0,0.0,84,0.00,,---,0.00,VWS V14.01,2013-02-04 08:40:00,
2013-02-04 03:45:00,46.9,42.4,30.18,NNW,343,0.0,0.0,84,0.00,,---,0.00,VWS V14.01,2013-02-04 08:45:00,
2013-02-04 03:50:00,47.3,43.0,30.18,NNW,346,3.1,3.1,85,0.00,,---,0.00,VWS V14.01,2013-02-04 08:50:00,
2013-02-04 03:55:00,47.7,43.7,30.18,NNW,342,4.9,4.9,86,0.00,,---,0.00,VWS V14.01,2013-02-04 08:55:00,
2013-02-04 04:00:00,47.8,44.2,30.18,NNW,341,0.0,0.0,87,0.00,,---,0.00,VWS V14.01,2013-02-04 09:00:00,
2013-02-04 04:05:00,47.5,43.8,30.18,NNW,341,0.0,0.0,87,0.00,,---,0.00,VWS V14.01,2013-02-04 09:05:00,
2013-02-04 04:10:00,47.3,43.3,30.18,NNW,338,4.0,4.0,86,0.00,,---,0.00,VWS V14.01,2013-02-04 09:10:00,
2013-02-04 04:15:00,47.3,43.3,30.18,NNW,343,0.0,0.0,86,0.00,,---,0.00,VWS V14.01,2013-02-04 09:15:00,
2013-02-04 04:20:00,47.5,43.5,30.18,NNW,331,2.7,2.7,86,0.00,,---,0.00,VWS V14.01,2013-02-04 09:20:00,
2013-02-04 04:25:00,47.3,43.3,30.18,NNW,348,2.7,2.7,86,0.00,,---,0.00,VWS V14.01,2013-02-04 09:25:00,
2013-02-04 04:30:00,47.1,42.8,30.18,NNW,340,2.7,3.6,85,0.00,,---,0.00,VWS V14.01,2013-02-04 09:30:00,
2013-02-04 04:35:00,47.1,42.8,30.18,NNW,346,2.7,2.7,85,0.00,,---,0.00,VWS V14.01,2013-02-04 09:35:00,
2013-02-04 04:40:00,46.9,42.7,30.18,NNW,344,3.1,3.1,85,0.00,,---,0.00,VWS V14.01,2013-02-04 09:40:00,
2013-02-04 04:45:00,46.8,42.5,30.18,NNW,344,3.1,3.1,85,0.00,,---,0.00,VWS V14.01,2013-02-04 09:45:00,
2013-02-04 04:50:00,46.9,43.0,30.18,NNW,337,2.7,2.7,86,0.00,,---,0.00,VWS V14.01,2013-02-04 09:50:00,
2013-02-04 04:56:00,46.8,42.5,30.18,NNW,329,4.0,4.0,85,0.00,,---,0.00,VWS V14.01,2013-02-04 09:56:00,
2013-02-04 05:01:00,46.8,42.5,30.18,NNW,346,2.2,2.2,85,0.00,,---,0.00,VWS V14.01,2013-02-04 10:01:00,
2013-02-04 05:06:00,46.6,42.0,30.18,North,357,2.7,2.7,84,0.00,,---,0.00,VWS V14.01,2013-02-04 10:06:00,
2013-02-04 05:11:00,46.4,41.5,30.18,North,353,2.7,2.7,83,0.00,,---,0.00,VWS V14.01,2013-02-04 10:11:00,
2013-02-04 05:16:00,46.2,41.3,30.18,NNW,341,0.0,3.1,83,0.00,,---,0.00,VWS V14.01,2013-02-04 10:16:00,
2013-02-04 05:21:00,46.2,41.3,30.18,NNW,341,3.1,3.1,83,0.00,,---,0.00,VWS V14.01,2013-02-04 10:21:00,
2013-02-04 05:26:00,46.0,40.9,30.18,North,349,4.0,4.0,82,0.00,,---,0.00,VWS V14.01,2013-02-04 10:26:00,
2013-02-04 05:31:00,46.0,40.5,30.18,NNW,330,2.2,3.1,81,0.00,,---,0.00,VWS V14.01,2013-02-04 10:31:00,
2013-02-04 05:36:00,45.7,39.9,30.18,NNW,345,2.7,2.7,80,0.00,,---,0.00,VWS V14.01,2013-02-04 10:36:00,
2013-02-04 05:41:00,45.7,39.2,30.18,NNW,345,3.1,3.1,78,0.00,,---,0.00,VWS V14.01,2013-02-04 10:41:00,
2013-02-04 05:46:00,45.5,37.7,30.18,NNW,334,0.0,0.0,74,0.00,,---,0.00,VWS V14.01,2013-02-04 10:46:00,
2013-02-04 05:51:00,45.5,36.3,30.18,NNW,340,2.7,2.7,70,0.00,,---,0.00,VWS V14.01,2013-02-04 10:51:00,
2013-02-04 05:56:00,45.3,36.1,30.18,NNW,334,0.0,0.0,70,0.00,,---,0.00,VWS V14.01,2013-02-04 10:56:00,
2013-02-04 06:01:00,45.3,35.0,30.18,NNW,334,0.0,0.0,67,0.00,,---,0.00,VWS V14.01,2013-02-04 11:01:00,
2013-02-04 06:06:00,45.1,34.8,30.18,NNW,334,0.0,0.0,67,0.00,,---,0.00,VWS V14.01,2013-02-04 11:06:00,
2013-02-04 06:11:00,44.8,34.1,30.18,WNW,294,0.0,0.0,66,0.00,,---,0.00,VWS V14.01,2013-02-04 11:11:00,
2013-02-04 06:16:00,44.6,33.6,30.18,WNW,294,0.0,0.0,65,0.00,,---,0.00,VWS V14.01,2013-02-04 11:16:00,
2013-02-04 06:21:00,43.9,33.3,30.18,WNW,293,0.0,0.0,66,0.00,,---,0.00,VWS V14.01,2013-02-04 11:21:00,
2013-02-04 06:26:00,43.9,32.9,30.18,WNW,293,0.0,0.0,65,0.00,,---,0.00,VWS V14.01,2013-02-04 11:26:00,
2013-02-04 06:31:00,44.2,33.6,30.18,WNW,293,0.0,0.0,66,0.00,,---,0.00,VWS V14.01,2013-02-04 11:31:00,
2013-02-04 06:36:00,44.1,32.3,30.18,WNW,295,0.0,0.0,63,0.00,,---,0.00,VWS V14.01,2013-02-04 11:36:00,
2013-02-04 06:41:00,43.5,32.2,30.18,WNW,295,0.0,0.0,64,0.00,,---,0.00,VWS V14.01,2013-02-04 11:41:00,
2013-02-04 06:46:00,43.5,31.8,30.18,WNW,295,0.0,0.0,63,0.00,,---,0.00,VWS V14.01,2013-02-04 11:46:00,
2013-02-04 06:51:00,43.7,33.5,30.18,WNW,295,0.0,0.0,67,0.00,,---,0.00,VWS V14.01,2013-02-04 11:51:00,
2013-02-04 06:56:00,43.5,33.7,30.18,WNW,295,0.0,0.0,68,0.00,,---,0.00,VWS V14.01,2013-02-04 11:56:00,
2013-02-04 07:01:00,43.2,33.0,30.18,WNW,295,0.0,0.0,67,0.00,,---,0.00,VWS V14.01,2013-02-04 12:01:00,
2013-02-04 07:06:00,43.0,32.8,30.21,WNW,295,0.0,0.0,67,0.00,,---,0.00,VWS V14.01,2013-02-04 12:06:00,
2013-02-04 07:11:00,43.0,33.2,30.21,WNW,295,0.0,0.0,68,0.00,,---,0.00,VWS V14.01,2013-02-04 12:11:00,
2013-02-04 07:16:00,43.0,33.2,30.21,WNW,295,0.0,0.0,68,0.00,,---,0.00,VWS V14.01,2013-02-04 12:16:00,
2013-02-04 07:21:00,43.0,33.9,30.21,WNW,295,0.0,0.0,70,0.00,,---,0.00,VWS V14.01,2013-02-04 12:21:00,
2013-02-04 07:26:00,43.0,34.2,30.21,WNW,295,0.0,0.0,71,0.00,,---,0.00,VWS V14.01,2013-02-04 12:26:00,
2013-02-04 07:31:00,43.7,35.6,30.21,NW,312,0.0,0.0,73,0.00,,---,0.00,VWS V14.01,2013-02-04 12:31:00,
2013-02-04 07:37:00,44.4,37.0,30.21,NW,312,0.0,0.0,75,0.00,,---,0.00,VWS V14.01,2013-02-04 12:37:00,
2013-02-04 07:42:00,45.0,37.5,30.21,NNW,341,0.0,0.0,75,0.00,,---,0.00,VWS V14.01,2013-02-04 12:42:00,
2013-02-04 07:47:00,45.9,38.4,30.21,NNW,335,0.0,0.0,75,0.00,,---,0.00,VWS V14.01,2013-02-04 12:47:00,
2013-02-04 07:52:00,46.9,38.8,30.21,NNW,334,0.0,0.0,73,0.00,,---,0.00,VWS V14.01,2013-02-04 12:52:00,
2013-02-04 07:57:00,48.7,38.7,30.21,NW,323,2.2,2.2,68,0.00,,---,0.00,VWS V14.01,2013-02-04 12:57:00,
2013-02-04 08:02:00,50.7,30.7,30.21,NW,313,2.7,2.7,46,0.00,,---,0.00,VWS V14.01,2013-02-04 13:02:00,
2013-02-04 08:07:00,52.2,28.6,30.21,NW,312,3.1,3.1,40,0.00,,---,0.00,VWS V14.01,2013-02-04 13:07:00,
2013-02-04 08:12:00,53.8,28.8,30.21,NNW,339,3.1,3.1,38,0.00,,---,0.00,VWS V14.01,2013-02-04 13:12:00,
2013-02-04 08:17:00,54.7,28.3,30.21,NNW,332,0.0,0.0,36,0.00,,---,0.00,VWS V14.01,2013-02-04 13:17:00,
2013-02-04 08:22:00,55.4,28.2,30.21,North,357,3.1,3.1,35,0.00,,---,0.00,VWS V14.01,2013-02-04 13:22:00,
2013-02-04 08:27:00,56.3,28.3,30.21,WNW,303,2.2,2.2,34,0.00,,---,0.00,VWS V14.01,2013-02-04 13:27:00,
2013-02-04 08:32:00,57.9,26.7,30.21,NNW,327,2.7,3.6,30,0.00,,---,0.00,VWS V14.01,2013-02-04 13:32:00,
2013-02-04 08:37:00,58.8,24.9,30.21,NNW,335,2.7,2.7,27,0.00,,---,0.00,VWS V14.01,2013-02-04 13:37:00,
2013-02-04 08:42:00,59.9,25.0,30.21,WNW,297,0.0,0.0,26,0.00,,---,0.00,VWS V14.01,2013-02-04 13:42:00,
2013-02-04 08:47:00,61.3,26.2,30.21,NNW,340,4.0,4.0,26,0.00,,---,0.00,VWS V14.01,2013-02-04 13:47:00,
2013-02-04 08:52:00,62.8,26.5,30.21,WNW,284,3.6,4.0,25,0.00,,---,0.00,VWS V14.01,2013-02-04 13:52:00,
2013-02-04 08:57:00,63.7,26.2,30.21,WNW,290,2.2,2.2,24,0.00,,---,0.00,VWS V14.01,2013-02-04 13:57:00,
2013-02-04 09:02:00,64.6,26.0,30.21,NNW,343,3.6,4.0,23,0.00,,---,0.00,VWS V14.01,2013-02-04 14:02:00,
2013-02-04 09:07:00,65.5,26.7,30.21,NNW,332,3.6,3.6,23,0.00,,---,0.00,VWS V14.01,2013-02-04 14:07:00,
2013-02-04 09:12:00,65.8,27.0,30.21,North,353,2.2,2.2,23,0.00,,---,0.00,VWS V14.01,2013-02-04 14:12:00,
2013-02-04 09:17:00,67.5,28.4,30.21,NE,42,2.2,2.2,23,0.00,,---,0.00,VWS V14.01,2013-02-04 14:17:00,
2013-02-04 09:22:00,69.1,29.8,30.21,NNW,343,3.1,3.1,23,0.00,,---,0.00,VWS V14.01,2013-02-04 14:22:00,
2013-02-04 09:27:00,69.1,28.7,30.21,NNW,340,0.0,0.0,22,0.00,,---,0.00,VWS V14.01,2013-02-04 14:27:00,
2013-02-04 09:32:00,70.5,29.9,30.21,NNW,341,0.0,0.0,22,0.00,,---,0.00,VWS V14.01,2013-02-04 14:32:00,
2013-02-04 09:37:00,70.3,29.7,30.21,WNW,292,0.0,0.0,22,0.00,,---,0.00,VWS V14.01,2013-02-04 14:37:00,
2013-02-04 09:42:00,69.4,26.7,30.24,WNW,284,3.1,3.1,20,0.00,,---,0.00,VWS V14.01,2013-02-04 14:42:00,
2013-02-04 09:47:00,71.8,27.3,30.24,NW,317,3.6,4.0,19,0.00,,---,0.00,VWS V14.01,2013-02-04 14:47:00,
2013-02-04 09:52:00,70.7,26.5,30.24,NW,313,4.9,4.9,19,0.00,,---,0.00,VWS V14.01,2013-02-04 14:52:00,
2013-02-04 09:57:00,70.5,26.3,30.24,West,272,2.2,4.0,19,0.00,,---,0.00,VWS V14.01,2013-02-04 14:57:00,
2013-02-04 10:02:00,72.9,28.2,30.24,NNW,329,2.7,3.6,19,0.00,,---,0.00,VWS V14.01,2013-02-04 15:02:00,
2013-02-04 10:07:00,73.8,27.6,30.24,WSW,253,0.0,0.0,18,0.00,,---,0.00,VWS V14.01,2013-02-04 15:07:00,
2013-02-04 10:12:00,74.7,28.4,30.24,North,0,0.0,0.0,18,0.00,,---,0.00,VWS V14.01,2013-02-04 15:12:00,
2013-02-04 10:17:00,75.6,29.1,30.24,WNW,292,0.0,0.0,18,0.00,,---,0.00,VWS V14.01,2013-02-04 15:17:00,
2013-02-04 10:22:00,75.4,29.0,30.21,North,7,3.6,3.6,18,0.00,,---,0.00,VWS V14.01,2013-02-04 15:22:00,
2013-02-04 10:27:00,74.8,28.5,30.21,ENE,59,3.6,3.6,18,0.00,,---,0.00,VWS V14.01,2013-02-04 15:27:00,
2013-02-04 10:32:00,75.7,24.9,30.21,East,90,0.0,0.0,15,0.00,,---,0.00,VWS V14.01,2013-02-04 15:32:00,
2013-02-04 10:37:00,75.9,29.4,30.21,ESE,120,0.0,3.6,18,0.00,,---,0.00,VWS V14.01,2013-02-04 15:37:00,
2013-02-04 10:42:00,76.8,30.1,30.21,WNW,283,0.0,0.0,18,0.00,,---,0.00,VWS V14.01,2013-02-04 15:42:00,
2013-02-04 10:48:00,77.9,26.6,30.21,WSW,240,3.6,3.6,15,0.00,,---,0.00,VWS V14.01,2013-02-04 15:48:00,
2013-02-04 10:53:00,79.0,27.4,30.21,SW,227,0.0,0.0,15,0.00,,---,0.00,VWS V14.01,2013-02-04 15:53:00,
2013-02-04 10:58:00,79.7,31.1,30.21,SW,221,3.6,3.6,17,0.00,,---,0.00,VWS V14.01,2013-02-04 15:58:00,
2013-02-04 11:03:00,78.6,27.1,30.21,NE,51,0.0,0.0,15,0.00,,---,0.00,VWS V14.01,2013-02-04 16:03:00,
2013-02-04 11:08:00,80.2,31.5,30.21,NNW,330,0.0,0.0,17,0.00,,---,0.00,VWS V14.01,2013-02-04 16:08:00,
2013-02-04 11:13:00,81.1,27.5,30.21,SSW,201,2.2,2.2,14,0.00,,---,0.00,VWS V14.01,2013-02-04 16:13:00,
2013-02-04 11:18:00,82.0,28.2,30.21,WSW,237,3.1,4.0,14,0.00,,---,0.00,VWS V14.01,2013-02-04 16:18:00,
2013-02-04 11:23:00,81.7,27.9,30.21,South,180,3.6,3.6,14,0.00,,---,0.00,VWS V14.01,2013-02-04 16:23:00,
2013-02-04 11:28:00,82.4,28.5,30.21,SSE,157,0.0,0.0,14,0.00,,---,0.00,VWS V14.01,2013-02-04 16:28:00,
2013-02-04 11:33:00,83.1,29.0,30.21,NE,52,0.0,0.0,14,0.00,,---,0.00,VWS V14.01,2013-02-04 16:33:00,
2013-02-04 11:38:00,80.4,28.6,30.21,North,10,3.6,3.6,15,0.00,,---,0.00,VWS V14.01,2013-02-04 16:38:00,
2013-02-04 11:43:00,83.5,29.3,30.21,ESE,111,2.7,2.7,14,0.00,,---,0.00,VWS V14.01,2013-02-04 16:43:00,
2013-02-04 11:48:00,83.1,29.0,30.21,SE,141,2.2,2.2,14,0.00,,---,0.00,VWS V14.01,2013-02-04 16:48:00,
2013-02-04 11:53:00,83.7,29.5,30.21,SSW,196,2.7,2.7,14,0.00,,---,0.00,VWS V14.01,2013-02-04 16:53:00,
2013-02-04 11:58:00,84.6,28.4,30.21,South,190,4.0,4.0,13,0.00,,---,0.00,VWS V14.01,2013-02-04 16:58:00,
2013-02-04 12:03:00,84.4,28.2,30.21,SSW,199,2.2,2.2,13,0.00,,---,0.00,VWS V14.01,2013-02-04 17:03:00,
2013-02-04 12:08:00,84.6,28.4,30.18,West,263,0.0,0.0,13,0.00,,---,0.00,VWS V14.01,2013-02-04 17:08:00,
2013-02-04 12:13:00,85.1,28.8,30.18,West,278,2.7,2.7,13,0.00,,---,0.00,VWS V14.01,2013-02-04 17:13:00,
2013-02-04 12:18:00,84.2,28.1,30.18,WSW,243,3.1,3.1,13,0.00,,---,0.00,VWS V14.01,2013-02-04 17:18:00,
2013-02-04 12:23:00,83.7,29.5,30.18,SW,231,3.6,3.6,14,0.00,,---,0.00,VWS V14.01,2013-02-04 17:23:00,
2013-02-04 12:28:00,85.1,28.8,30.18,SSE,155,2.2,2.2,13,0.00,,---,0.00,VWS V14.01,2013-02-04 17:28:00,
2013-02-04 12:33:00,84.4,28.2,30.18,SW,224,2.7,3.1,13,0.00,,---,0.00,VWS V14.01,2013-02-04 17:33:00,
2013-02-04 12:38:00,84.7,28.5,30.18,WSW,252,2.2,5.4,13,0.00,,---,0.00,VWS V14.01,2013-02-04 17:38:00,
2013-02-04 12:43:00,85.6,29.2,30.18,West,262,2.7,3.1,13,0.00,,---,0.00,VWS V14.01,2013-02-04 17:43:00,
2013-02-04 12:48:00,84.9,28.6,30.18,WSW,247,4.0,4.0,13,0.00,,---,0.00,VWS V14.01,2013-02-04 17:48:00,
2013-02-04 12:53:00,83.1,29.0,30.18,West,278,0.0,2.2,14,0.00,,---,0.00,VWS V14.01,2013-02-04 17:53:00,
2013-02-04 12:58:00,85.8,29.4,30.18,SW,231,0.0,2.7,13,0.00,,---,0.00,VWS V14.01,2013-02-04 17:58:00,
2013-02-04 13:03:00,84.9,28.6,30.18,SSE,165,0.0,0.0,13,0.00,,---,0.00,VWS V14.01,2013-02-04 18:03:00,
2013-02-04 13:08:00,84.9,28.6,30.15,WSW,239,0.0,2.2,13,0.00,,---,0.00,VWS V14.01,2013-02-04 18:08:00,
2013-02-04 13:13:00,84.7,28.5,30.15,South,184,3.1,4.9,13,0.00,,---,0.00,VWS V14.01,2013-02-04 18:13:00,
2013-02-04 13:19:00,84.0,29.8,30.15,SSE,153,2.7,2.7,14,0.00,,---,0.00,VWS V14.01,2013-02-04 18:19:00,
2013-02-04 13:24:00,86.2,29.6,30.15,WNW,289,2.2,2.7,13,0.00,,---,0.00,VWS V14.01,2013-02-04 18:24:00,
2013-02-04 13:29:00,86.7,30.0,30.15,WNW,302,2.7,2.7,13,0.00,,---,0.00,VWS V14.01,2013-02-04 18:29:00,
2013-02-04 13:34:00,86.9,30.2,30.15,WSW,258,2.7,3.6,13,0.00,,---,0.00,VWS V14.01,2013-02-04 18:34:00,
2013-02-04 13:39:00,85.6,29.2,30.15,SW,217,3.1,3.1,13,0.00,,---,0.00,VWS V14.01,2013-02-04 18:39:00,
2013-02-04 13:44:00,86.5,29.9,30.15,ESE,123,2.7,4.0,13,0.00,,---,0.00,VWS V14.01,2013-02-04 18:44:00,
2013-02-04 13:49:00,87.1,30.3,30.15,NNE,19,3.6,4.9,13,0.00,,---,0.00,VWS V14.01,2013-02-04 18:49:00,
2013-02-04 13:54:00,84.7,28.5,30.15,North,11,0.0,3.1,13,0.00,,---,0.00,VWS V14.01,2013-02-04 18:54:00,
2013-02-04 13:59:00,87.1,30.3,30.15,WSW,250,3.1,3.1,13,0.00,,---,0.00,VWS V14.01,2013-02-04 18:59:00,
2013-02-04 14:04:00,86.5,29.9,30.15,WSW,245,6.3,7.6,13,0.00,,---,0.00,VWS V14.01,2013-02-04 19:04:00,
2013-02-04 14:09:00,87.4,30.6,30.12,SW,236,2.2,6.3,13,0.00,,---,0.00,VWS V14.01,2013-02-04 19:09:00,
2013-02-04 14:14:00,87.1,30.3,30.12,SW,228,5.4,5.4,13,0.00,,---,0.00,VWS V14.01,2013-02-04 19:14:00,
2013-02-04 14:19:00,84.0,29.8,30.12,SW,229,2.7,2.7,14,0.00,,---,0.00,VWS V14.01,2013-02-04 19:19:00,
2013-02-04 14:24:00,86.5,29.9,30.12,WNW,295,0.0,0.0,13,0.00,,---,0.00,VWS V14.01,2013-02-04 19:24:00,
2013-02-04 14:29:00,87.3,30.5,30.12,West,263,5.4,5.4,13,0.00,,---,0.00,VWS V14.01,2013-02-04 19:29:00,
2013-02-04 14:34:00,87.6,30.8,30.12,SW,235,3.1,3.1,13,0.00,,---,0.00,VWS V14.01,2013-02-04 19:34:00,
2013-02-04 14:39:00,86.5,29.9,30.12,East,88,6.3,6.3,13,0.00,,---,0.00,VWS V14.01,2013-02-04 19:39:00,
2013-02-04 14:44:00,86.4,29.8,30.12,NW,305,4.9,4.9,13,0.00,,---,0.00,VWS V14.01,2013-02-04 19:44:00,
2013-02-04 14:49:00,86.5,29.9,30.12,SSE,163,3.6,3.6,13,0.00,,---,0.00,VWS V14.01,2013-02-04 19:49:00,
2013-02-04 14:54:00,86.7,30.0,30.12,SE,135,5.8,5.8,13,0.00,,---,0.00,VWS V14.01,2013-02-04 19:54:00,
2013-02-04 14:59:00,85.6,34.3,30.12,ESE,115,5.4,5.4,16,0.00,,---,0.00,VWS V14.01,2013-02-04 19:59:00,
2013-02-04 15:04:00,82.6,31.9,30.12,SSW,204,3.6,3.6,16,0.00,,---,0.00,VWS V14.01,2013-02-04 20:04:00,
2013-02-04 15:09:00,79.9,31.2,30.12,ESE,117,3.6,6.7,17,0.00,,---,0.00,VWS V14.01,2013-02-04 20:09:00,
2013-02-04 15:14:00,80.4,31.7,30.12,ESE,118,6.3,6.3,17,0.00,,---,0.00,VWS V14.01,2013-02-04 20:14:00,
2013-02-04 15:19:00,77.5,30.7,30.12,ESE,111,5.4,5.8,18,0.00,,---,0.00,VWS V14.01,2013-02-04 20:19:00,
2013-02-04 15:24:00,74.7,32.2,30.12,SE,136,4.0,5.4,21,0.00,,---,0.00,VWS V14.01,2013-02-04 20:24:00,
2013-02-04 15:29:00,73.8,31.4,30.12,NE,43,4.0,4.0,21,0.00,,---,0.00,VWS V14.01,2013-02-04 20:29:00,
2013-02-04 15:34:00,76.5,33.7,30.12,SE,124,3.1,3.1,21,0.00,,---,0.00,VWS V14.01,2013-02-04 20:34:00,
2013-02-04 15:39:00,76.5,33.7,30.12,ESE,122,3.6,4.9,21,0.00,,---,0.00,VWS V14.01,2013-02-04 20:39:00,
2013-02-04 15:44:00,77.2,33.0,30.12,ESE,110,5.4,6.7,20,0.00,,---,0.00,VWS V14.01,2013-02-04 20:44:00,
2013-02-04 15:49:00,74.7,32.2,30.12,SE,130,4.0,6.3,21,0.00,,---,0.00,VWS V14.01,2013-02-04 20:49:00,
2013-02-04 15:54:00,73.4,31.1,30.12,SE,137,7.6,7.6,21,0.00,,---,0.00,VWS V14.01,2013-02-04 20:54:00,
2013-02-04 15:59:00,73.0,32.0,30.12,SE,126,0.0,5.4,22,0.00,,---,0.00,VWS V14.01,2013-02-04 20:59:00,
2013-02-04 16:04:00,72.5,31.5,30.12,SSE,157,2.7,5.4,22,0.00,,---,0.00,VWS V14.01,2013-02-04 21:04:00,
2013-02-04 16:10:00,72.1,31.2,30.12,ESE,120,2.7,5.8,22,0.00,,---,0.00,VWS V14.01,2013-02-04 21:10:00,
2013-02-04 16:15:00,72.3,31.4,30.12,ESE,116,3.1,5.8,22,0.00,,---,0.00,VWS V14.01,2013-02-04 21:15:00,
2013-02-04 16:20:00,72.0,31.1,30.12,SE,140,3.1,4.0,22,0.00,,---,0.00,VWS V14.01,2013-02-04 21:20:00,
2013-02-04 16:25:00,71.2,31.6,30.12,SE,124,2.7,4.9,23,0.00,,---,0.00,VWS V14.01,2013-02-04 21:25:00,
2013-02-04 16:30:00,70.5,31.0,30.12,SSE,154,5.8,6.3,23,0.00,,---,0.00,VWS V14.01,2013-02-04 21:30:00,
2013-02-04 16:35:00,70.5,31.0,30.12,ESE,111,2.7,2.7,23,0.00,,---,0.00,VWS V14.01,2013-02-04 21:35:00,
2013-02-04 16:40:00,70.5,31.0,30.12,ESE,112,4.0,4.0,23,0.00,,---,0.00,VWS V14.01,2013-02-04 21:40:00,
2013-02-04 16:45:00,70.7,32.2,30.12,East,91,3.1,3.1,24,0.00,,---,0.00,VWS V14.01,2013-02-04 21:45:00,
2013-02-04 16:50:00,70.5,32.0,30.12,SSE,151,2.7,3.1,24,0.00,,---,0.00,VWS V14.01,2013-02-04 21:50:00,
2013-02-04 16:55:00,70.5,32.0,30.12,South,170,2.7,2.7,24,0.00,,---,0.00,VWS V14.01,2013-02-04 21:55:00,
2013-02-04 17:00:00,70.5,32.0,30.12,East,97,3.1,3.1,24,0.00,,---,0.00,VWS V14.01,2013-02-04 22:00:00,
2013-02-04 17:05:00,71.8,32.0,30.12,SE,138,2.7,2.7,23,0.00,,---,0.00,VWS V14.01,2013-02-04 22:05:00,
2013-02-04 17:10:00,72.5,31.5,30.12,ENE,71,5.4,5.4,22,0.00,,---,0.00,VWS V14.01,2013-02-04 22:10:00,
2013-02-04 17:15:00,72.5,31.5,30.12,SSW,201,0.0,0.0,22,0.00,,---,0.00,VWS V14.01,2013-02-04 22:15:00,
2013-02-04 17:20:00,72.5,31.5,30.12,SSW,208,0.0,0.0,22,0.00,,---,0.00,VWS V14.01,2013-02-04 22:20:00,
2013-02-04 17:25:00,72.5,31.5,30.12,SW,221,0.0,0.0,22,0.00,,---,0.00,VWS V14.01,2013-02-04 22:25:00,
2013-02-04 17:30:00,72.5,31.5,30.12,SE,127,5.8,5.8,22,0.00,,---,0.00,VWS V14.01,2013-02-04 22:30:00,
2013-02-04 17:35:00,71.6,30.8,30.12,SE,129,2.2,2.7,22,0.00,,---,0.00,VWS V14.01,2013-02-04 22:35:00,
2013-02-04 17:40:00,71.6,30.8,30.12,SE,141,2.7,3.6,22,0.00,,---,0.00,VWS V14.01,2013-02-04 22:40:00,
2013-02-04 17:45:00,69.6,31.3,30.12,SE,145,2.7,2.7,24,0.00,,---,0.00,VWS V14.01,2013-02-04 22:45:00,
2013-02-04 17:50:00,68.2,32.0,30.12,SE,127,2.2,2.2,26,0.00,,---,0.00,VWS V14.01,2013-02-04 22:50:00,
2013-02-04 17:55:00,67.5,32.3,30.12,SSE,147,4.0,4.0,27,0.00,,---,0.00,VWS V14.01,2013-02-04 22:55:00,
2013-02-04 18:00:00,67.3,32.2,30.12,ESE,118,0.0,0.0,27,0.00,,---,0.00,VWS V14.01,2013-02-04 23:00:00,
2013-02-04 18:05:00,67.3,32.2,30.12,SE,146,4.0,4.0,27,0.00,,---,0.00,VWS V14.01,2013-02-04 23:05:00,
2013-02-04 18:10:00,66.4,33.2,30.12,SE,141,3.6,3.6,29,0.00,,---,0.00,VWS V14.01,2013-02-04 23:10:00,
2013-02-04 18:15:00,65.5,33.3,30.12,ESE,114,0.0,0.0,30,0.00,,---,0.00,VWS V14.01,2013-02-04 23:15:00,
2013-02-04 18:20:00,64.4,34.7,30.12,ESE,104,2.7,2.7,33,0.00,,---,0.00,VWS V14.01,2013-02-04 23:20:00,
2013-02-04 18:25:00,64.4,34.7,30.15,SE,143,0.0,0.0,33,0.00,,---,0.00,VWS V14.01,2013-02-04 23:25:00,
2013-02-04 18:31:00,63.1,35.1,30.15,ESE,118,0.0,0.0,35,0.00,,---,0.00,VWS V14.01,2013-02-04 23:31:00,
2013-02-04 18:36:00,63.1,35.1,30.15,ESE,118,0.0,0.0,35,0.00,,---,0.00,VWS V14.01,2013-02-04 23:36:00,
2013-02-04 18:41:00,62.2,35.7,30.15,ENE,76,0.0,0.0,37,0.00,,---,0.00,VWS V14.01,2013-02-04 23:41:00,
2013-02-04 18:46:00,61.3,34.9,30.15,ENE,76,0.0,0.0,37,0.00,,---,0.00,VWS V14.01,2013-02-04 23:46:00,
2013-02-04 18:51:00,61.0,35.2,30.15,ENE,76,0.0,0.0,38,0.00,,---,0.00,VWS V14.01,2013-02-04 23:51:00,
2013-02-04 18:56:00,60.4,36.0,30.15,ENE,76,0.0,0.0,40,0.00,,---,0.00,VWS V14.01,2013-02-04 23:56:00,
2013-02-04 19:01:00,59.7,36.6,30.15,ENE,76,0.0,0.0,42,0.00,,---,0.00,VWS V14.01,2013-02-05 00:01:00,
2013-02-04 19:06:00,59.5,37.6,30.15,ENE,76,0.0,0.0,44,0.00,,---,0.00,VWS V14.01,2013-02-05 00:06:00,
2013-02-04 19:11:00,59.5,38.2,30.15,ENE,75,0.0,0.0,45,0.00,,---,0.00,VWS V14.01,2013-02-05 00:11:00,
2013-02-04 19:16:00,59.5,38.2,30.15,ENE,76,0.0,0.0,45,0.00,,---,0.00,VWS V14.01,2013-02-05 00:16:00,
2013-02-04 19:21:00,59.5,38.2,30.15,ENE,76,0.0,0.0,45,0.00,,---,0.00,VWS V14.01,2013-02-05 00:21:00,
2013-02-04 19:26:00,59.5,38.2,30.15,ENE,76,0.0,0.0,45,0.00,,---,0.00,VWS V14.01,2013-02-05 00:26:00,
2013-02-04 19:31:00,57.6,38.0,30.15,ENE,75,0.0,0.0,48,0.00,,---,0.00,VWS V14.01,2013-02-05 00:31:00,
2013-02-04 19:36:00,57.6,38.0,30.15,ENE,76,0.0,0.0,48,0.00,,---,0.00,VWS V14.01,2013-02-05 00:36:00,
2013-02-04 19:41:00,57.2,38.8,30.15,ENE,75,0.0,0.0,50,0.00,,---,0.00,VWS V14.01,2013-02-05 00:41:00,
2013-02-04 19:46:00,57.2,38.8,30.15,ENE,76,0.0,0.0,50,0.00,,---,0.00,VWS V14.01,2013-02-05 00:46:00,
2013-02-04 19:51:00,57.2,38.8,30.15,ENE,76,0.0,0.0,50,0.00,,---,0.00,VWS V14.01,2013-02-05 00:51:00,
2013-02-04 19:56:00,56.3,40.8,30.15,ENE,76,0.0,0.0,56,0.00,,---,0.00,VWS V14.01,2013-02-05 00:56:00,
2013-02-04 20:01:00,56.1,41.6,30.15,ENE,76,0.0,0.0,58,0.00,,---,0.00,VWS V14.01,2013-02-05 01:01:00,
2013-02-04 20:06:00,55.9,41.8,30.15,ENE,76,0.0,0.0,59,0.00,,---,0.00,VWS V14.01,2013-02-05 01:06:00,
2013-02-04 20:11:00,55.9,41.8,30.15,ENE,76,0.0,0.0,59,0.00,,---,0.00,VWS V14.01,2013-02-05 01:11:00,
2013-02-04 20:16:00,55.2,42.9,30.15,ENE,76,0.0,0.0,63,0.00,,---,0.00,VWS V14.01,2013-02-05 01:16:00,
2013-02-04 20:21:00,55.2,42.9,30.15,ENE,76,0.0,0.0,63,0.00,,---,0.00,VWS V14.01,2013-02-05 01:21:00,
2013-02-04 20:26:00,55.0,43.1,30.15,ENE,76,0.0,0.0,64,0.00,,---,0.00,VWS V14.01,2013-02-05 01:26:00,
2013-02-04 20:31:00,55.0,43.1,30.15,ENE,76,0.0,0.0,64,0.00,,---,0.00,VWS V14.01,2013-02-05 01:31:00,
2013-02-04 20:37:00,54.9,44.1,30.15,ENE,76,0.0,0.0,67,0.00,,---,0.00,VWS V14.01,2013-02-05 01:37:00,
2013-02-04 20:42:00,54.7,44.3,30.15,ENE,76,0.0,0.0,68,0.00,,---,0.00,VWS V14.01,2013-02-05 01:42:00,
2013-02-04 20:47:00,54.7,45.5,30.15,ENE,76,0.0,0.0,71,0.00,,---,0.00,VWS V14.01,2013-02-05 01:47:00,
2013-02-04 20:52:00,54.7,46.6,30.15,ENE,76,0.0,0.0,74,0.00,,---,0.00,VWS V14.01,2013-02-05 01:52:00,
2013-02-04 20:57:00,54.7,46.9,30.15,ENE,76,0.0,0.0,75,0.00,,---,0.00,VWS V14.01,2013-02-05 01:57:00,
2013-02-04 21:02:00,54.9,47.1,30.15,ENE,76,0.0,0.0,75,0.00,,---,0.00,VWS V14.01,2013-02-05 02:02:00,
2013-02-04 21:07:00,54.7,46.9,30.15,ENE,75,0.0,0.0,75,0.00,,---,0.00,VWS V14.01,2013-02-05 02:07:00,
2013-02-04 21:12:00,54.5,47.1,30.15,ENE,76,0.0,0.0,76,0.00,,---,0.00,VWS V14.01,2013-02-05 02:12:00,
2013-02-04 21:17:00,54.5,47.1,30.15,ENE,76,0.0,0.0,76,0.00,,---,0.00,VWS V14.01,2013-02-05 02:17:00,
2013-02-04 21:22:00,54.5,47.1,30.15,ENE,76,0.0,0.0,76,0.00,,---,0.00,VWS V14.01,2013-02-05 02:22:00,
2013-02-04 21:27:00,54.1,47.4,30.15,ENE,76,0.0,0.0,78,0.00,,---,0.00,VWS V14.01,2013-02-05 02:27:00,
2013-02-04 21:32:00,54.1,47.4,30.15,ENE,76,0.0,0.0,78,0.00,,---,0.00,VWS V14.01,2013-02-05 02:32:00,
2013-02-04 21:37:00,54.1,47.4,30.15,ENE,76,0.0,0.0,78,0.00,,---,0.00,VWS V14.01,2013-02-05 02:37:00,
2013-02-04 21:42:00,54.1,47.4,30.15,ENE,76,0.0,0.0,78,0.00,,---,0.00,VWS V14.01,2013-02-05 02:42:00,
2013-02-04 21:47:00,53.6,47.3,30.15,ENE,76,0.0,0.0,79,0.00,,---,0.00,VWS V14.01,2013-02-05 02:47:00,
2013-02-04 21:52:00,53.6,47.6,30.15,ENE,76,0.0,0.0,80,0.00,,---,0.00,VWS V14.01,2013-02-05 02:52:00,
2013-02-04 21:57:00,53.6,47.6,30.15,ENE,76,0.0,0.0,80,0.00,,---,0.00,VWS V14.01,2013-02-05 02:57:00,
2013-02-04 22:02:00,53.8,47.8,30.15,ENE,75,0.0,0.0,80,0.00,,---,0.00,VWS V14.01,2013-02-05 03:02:00,
2013-02-04 22:07:00,53.8,47.8,30.15,ENE,76,0.0,0.0,80,0.00,,---,0.00,VWS V14.01,2013-02-05 03:07:00,
2013-02-04 22:12:00,53.6,47.6,30.15,ENE,76,0.0,0.0,80,0.00,,---,0.00,VWS V14.01,2013-02-05 03:12:00,
2013-02-04 22:17:00,53.6,47.6,30.15,ENE,75,0.0,0.0,80,0.00,,---,0.00,VWS V14.01,2013-02-05 03:17:00,
2013-02-04 22:22:00,53.6,47.9,30.15,ENE,76,0.0,0.0,81,0.00,,---,0.00,VWS V14.01,2013-02-05 03:22:00,
2013-02-04 22:27:00,53.6,47.9,30.18,ENE,75,0.0,0.0,81,0.00,,---,0.00,VWS V14.01,2013-02-05 03:27:00,
2013-02-04 22:32:00,53.2,47.9,30.18,ENE,76,0.0,0.0,82,0.00,,---,0.00,VWS V14.01,2013-02-05 03:32:00,
2013-02-04 22:37:00,53.1,48.0,30.18,ENE,76,0.0,0.0,83,0.00,,---,0.00,VWS V14.01,2013-02-05 03:37:00,
2013-02-04 22:43:00,53.1,48.0,30.18,ENE,76,0.0,0.0,83,0.00,,---,0.00,VWS V14.01,2013-02-05 03:43:00,
2013-02-04 22:48:00,53.1,47.7,30.18,ENE,76,0.0,0.0,82,0.00,,---,0.00,VWS V14.01,2013-02-05 03:48:00,
2013-02-04 22:53:00,53.1,47.7,30.18,ENE,76,0.0,0.0,82,0.00,,---,0.00,VWS V14.01,2013-02-05 03:53:00,
2013-02-04 22:58:00,52.9,47.5,30.18,ENE,76,0.0,0.0,82,0.00,,---,0.00,VWS V14.01,2013-02-05 03:58:00,
2013-02-04 23:03:00,52.5,47.5,30.18,ENE,76,0.0,0.0,83,0.00,,---,0.00,VWS V14.01,2013-02-05 04:03:00,
2013-02-04 23:08:00,52.5,47.5,30.18,ENE,76,0.0,0.0,83,0.00,,---,0.00,VWS V14.01,2013-02-05 04:08:00,
2013-02-04 23:13:00,52.5,47.8,30.18,ENE,76,0.0,0.0,84,0.00,,---,0.00,VWS V14.01,2013-02-05 04:13:00,
2013-02-04 23:18:00,52.2,47.2,30.18,ENE,76,0.0,0.0,83,0.00,,---,0.00,VWS V14.01,2013-02-05 04:18:00,
2013-02-04 23:23:00,52.2,47.5,30.18,ENE,76,0.0,0.0,84,0.00,,---,0.00,VWS V14.01,2013-02-05 04:23:00,
2013-02-04 23:28:00,52.3,47.7,30.18,ENE,76,0.0,0.0,84,0.00,,---,0.00,VWS V14.01,2013-02-05 04:28:00,
2013-02-04 23:33:00,52.3,47.3,30.18,ENE,76,0.0,0.0,83,0.00,,---,0.00,VWS V14.01,2013-02-05 04:33:00,
2013-02-04 23:38:00,52.3,47.3,30.18,ENE,76,0.0,0.0,83,0.00,,---,0.00,VWS V14.01,2013-02-05 04:38:00,
2013-02-04 23:43:00,52.2,47.2,30.18,ENE,76,0.0,0.0,83,0.00,,---,0.00,VWS V14.01,2013-02-05 04:43:00,
2013-02-04 23:48:00,52.2,47.2,30.18,ENE,76,0.0,0.0,83,0.00,,---,0.00,VWS V14.01,2013-02-05 04:48:00,
2013-02-04 23:53:00,52.0,47.3,30.18,ENE,76,0.0,0.0,84,0.00,,---,0.00,VWS V14.01,2013-02-05 04:53:00,
2013-02-04 23:58:00,51.8,47.1,30.18,ENE,76,0.0,0.0,84,0.00,,---,0.00,VWS V14.01,2013-02-05 04:58:00,